Overseas Houston — WWAA — position and weather

sailwx.info

Track history (hours):
 
Tides and Currents Weather Stations Pressure Air Temp Water Temp Dewpoint Dewpoint Depression Visibility Wind Speed Wind Dir Waves Ship Positions

Overseas Houston

Owner: ASC Leasing I, Inc., Philadelphia, PA. More information available from US FCC via Universal Licensing System and Coast Guard Vessel Documentation Center.

Last reported at 2014-Sep-27 01:32 UTC. Time now 2014-Oct-01 10:20 UTC.
Position N 27°36' W 083°06'.

Type: Tanker. MMSI: 367109000.

Date/timePositionNaut miles runAvg speedWind from/ knotsBaromVisibWave heightAir tempDewpointWater temp
2014-Sep-27 01:32N 27°36' W 083°06'1413.8
2014-Sep-27 00:33N 27°36' W 082°51'1313.5
2014-Sep-26 23:33N 27°39' W 082°36'9 8.8
2014-Sep-26 22:33N 27°48' W 082°34'4 3.8
2014-Sep-26 21:33N 27°52' W 082°33'0 0.0
2014-Sep-26 20:33N 27°52' W 082°33'0 0.0
2014-Sep-26 19:33N 27°52' W 082°33'0 0.0
2014-Sep-26 18:33N 27°52' W 082°33'0 0.0
2014-Sep-26 17:33N 27°52' W 082°33'0 0.0
2014-Sep-26 16:33N 27°52' W 082°33'0 0.0
2014-Sep-26 15:33N 27°52' W 082°33'0 0.0
2014-Sep-26 14:33N 27°52' W 082°33'0 0.0
2014-Sep-26 13:33N 27°52' W 082°33'0 0.0
2014-Sep-26 12:33N 27°52' W 082°33'0 0.0
2014-Sep-26 11:33N 27°52' W 082°33'0 0.0
2014-Sep-26 10:33N 27°52' W 082°33'0 0.0
2014-Sep-26 09:33N 27°52' W 082°33'0 0.0
2014-Sep-26 08:33N 27°52' W 082°33'0 0.0
2014-Sep-26 07:33N 27°52' W 082°33'0 0.0
2014-Sep-26 06:33N 27°52' W 082°33'0 0.0
2014-Sep-26 05:33N 27°52' W 082°33'0 0.0
2014-Sep-26 04:33N 27°52' W 082°33'0 0.0
2014-Sep-26 03:33N 27°52' W 082°33'4 3.6
2014-Sep-26 02:33N 27°48' W 082°34'7 7.2
2014-Sep-26 01:33N 27°51' W 082°27'4 4.5
2014-Sep-26 00:33N 27°55' W 082°27'0 0.0
2014-Sep-25 23:33N 27°55' W 082°27'0 0.0
2014-Sep-25 22:33N 27°55' W 082°27'0 0.0
2014-Sep-25 21:33N 27°55' W 082°27'0 0.0
2014-Sep-25 20:33N 27°55' W 082°27'0 0.0
2014-Sep-25 19:33N 27°55' W 082°27'0 0.0
2014-Sep-25 18:33N 27°55' W 082°27'0 0.0
2014-Sep-25 17:33N 27°55' W 082°27'0 0.0
2014-Sep-25 16:33N 27°55' W 082°27'0 0.0
2014-Sep-25 15:33N 27°55' W 082°27'0 0.0
2014-Sep-25 14:33N 27°55' W 082°27'0 0.0
2014-Sep-25 13:33N 27°55' W 082°27'0 0.0
2014-Sep-25 12:33N 27°55' W 082°27'0 0.0
2014-Sep-25 11:32N 27°55' W 082°27'0 0.0
2014-Sep-25 10:33N 27°55' W 082°27'0 0.0
2014-Sep-25 09:33N 27°55' W 082°27'0 0.0
2014-Sep-25 08:33N 27°55' W 082°27'0 0.0
2014-Sep-25 07:33N 27°55' W 082°27'0 0.0
2014-Sep-25 06:33N 27°55' W 082°27'0 0.0
2014-Sep-25 05:33N 27°55' W 082°27'0 0.0
2014-Sep-25 04:33N 27°55' W 082°27'4 3.6
2014-Sep-25 03:33N 27°51' W 082°27'1010.6
2014-Sep-25 02:33N 27°43' W 082°33'1111.0
2014-Sep-25 01:33N 27°36' W 082°43'1111.1
2014-Sep-25 00:33N 27°36' W 082°56'6 5.7
2014-Sep-24 23:33N 27°37' W 083°02'0 0.0
2014-Sep-24 22:33N 27°37' W 083°02'0 0.0
2014-Sep-24 21:33N 27°37' W 083°02'0 0.0
2014-Sep-24 20:33N 27°37' W 083°02'0 0.0
2014-Sep-24 19:33N 27°37' W 083°02'0 0.0
2014-Sep-24 18:33N 27°37' W 083°02'0 0.0
2014-Sep-24 17:33N 27°37' W 083°02'0 0.0
2014-Sep-24 16:30N 27°37' W 083°02'0 0.0
2014-Sep-24 15:30N 27°37' W 083°02'0 0.0
2014-Sep-24 13:33N 27°37' W 083°02'0 0.0
2014-Sep-24 12:33N 27°37' W 083°02'0 0.0
2014-Sep-24 11:32N 27°37' W 083°02'0 0.0
2014-Sep-24 10:32N 27°37' W 083°02'0 0.0
2014-Sep-24 09:32N 27°37' W 083°02'2 1.6
2014-Sep-24 08:33N 27°37' W 083°04'412 8.9
2014-Sep-22 10:21N 29°60' W 090°25'0 0.0
2014-Sep-21 12:33N 29°60' W 090°25'0 0.0
2014-Sep-21 11:27N 29°60' W 090°25'0 0.5
2014-Sep-21 10:33N 29°59' W 090°24'8 7.8
2014-Sep-21 09:31N 29°58' W 090°15'7 7.4
2014-Sep-21 08:33N 29°55' W 090°08'396 9.4
2014-Sep-19 14:33N 27°36' W 083°05'1413.9
2014-Sep-19 13:33N 27°36' W 082°50'1211.8
2014-Sep-19 12:33N 27°39' W 082°36'8 8.5
2014-Sep-19 11:33N 27°47' W 082°34'4 4.2
2014-Sep-19 10:31N 27°52' W 082°33'0 0.0
2014-Sep-19 09:31N 27°52' W 082°33'0 0.0
2014-Sep-19 08:31N 27°52' W 082°33'0 0.0
2014-Sep-19 07:31N 27°52' W 082°33'0 0.0
2014-Sep-19 06:31N 27°52' W 082°33'0 0.0
2014-Sep-19 05:31N 27°52' W 082°33'0 0.0
2014-Sep-19 04:31N 27°52' W 082°33'0 0.0
2014-Sep-19 03:31N 27°52' W 082°33'0 0.0
2014-Sep-19 02:31N 27°52' W 082°33'0 0.0
2014-Sep-19 01:31N 27°52' W 082°33'0 0.0
2014-Sep-19 00:31N 27°52' W 082°33'0 0.0
2014-Sep-18 23:31N 27°52' W 082°33'0 0.0
2014-Sep-18 22:31N 27°52' W 082°33'0 0.0
2014-Sep-18 21:34N 27°52' W 082°33'0 0.0
2014-Sep-18 20:33N 27°52' W 082°33'0 0.0
2014-Sep-18 19:33N 27°52' W 082°33'0 0.0
2014-Sep-18 18:33N 27°52' W 082°33'0 0.0
2014-Sep-18 17:33N 27°52' W 082°33'0 0.0
2014-Sep-18 16:33N 27°52' W 082°33'0 0.0
2014-Sep-18 15:33N 27°52' W 082°33'0 0.0
2014-Sep-18 14:30N 27°52' W 082°33'0 0.0
2014-Sep-18 13:33N 27°52' W 082°33'0 0.0
2014-Sep-18 12:33N 27°52' W 082°33'0 0.0
2014-Sep-18 11:33N 27°52' W 082°33'0 0.0
2014-Sep-18 10:33N 27°52' W 082°33'0 0.0
2014-Sep-18 09:33N 27°52' W 082°33'0 0.0
2014-Sep-18 08:33N 27°52' W 082°33'0 0.0
2014-Sep-18 07:33N 27°52' W 082°33'0 0.0
2014-Sep-18 06:27N 27°52' W 082°33'0 0.0
2014-Sep-18 05:33N 27°52' W 082°33'0 0.4
2014-Sep-18 04:33N 27°51' W 082°33'6 5.6
2014-Sep-18 03:33N 27°48' W 082°28'7 7.0
2014-Sep-18 02:33N 27°55' W 082°27'0 0.1
2014-Sep-18 01:33N 27°55' W 082°27'0 0.0
2014-Sep-18 00:33N 27°55' W 082°27'0 0.0
2014-Sep-17 23:33N 27°55' W 082°27'0 0.0
2014-Sep-17 22:33N 27°55' W 082°27'0 0.0
2014-Sep-17 21:30N 27°55' W 082°27'0 0.0
2014-Sep-17 20:33N 27°55' W 082°27'0 0.0
2014-Sep-17 19:32N 27°55' W 082°27'0 0.0
2014-Sep-17 18:32N 27°55' W 082°27'0 0.0
2014-Sep-17 17:32N 27°55' W 082°27'0 0.0
2014-Sep-17 16:32N 27°55' W 082°27'0 0.0
2014-Sep-17 15:29N 27°55' W 082°27'0 0.0
2014-Sep-17 14:32N 27°55' W 082°27'0 0.0
2014-Sep-17 13:32N 27°55' W 082°27'0 0.0
2014-Sep-17 12:32N 27°55' W 082°27'0 0.0
2014-Sep-17 11:32N 27°55' W 082°27'1 1.0
2014-Sep-17 10:33N 27°54' W 082°26'1010.2
2014-Sep-17 09:33N 27°45' W 082°32'1211.9
2014-Sep-17 08:33N 27°37' W 082°41'1211.9
2014-Sep-17 07:33N 27°36' W 082°55'6 6.3
2014-Sep-17 06:32N 27°37' W 083°02'0 0.0
2014-Sep-17 05:32N 27°37' W 083°02'0 0.0
2014-Sep-17 04:32N 27°37' W 083°02'0 0.0
2014-Sep-17 03:32N 27°37' W 083°02'0 0.0
2014-Sep-17 02:32N 27°37' W 083°02'  
Track history (hours):
 
Tides and Currents Weather Stations Pressure Air Temp Water Temp Dewpoint Dewpoint Depression Visibility Wind Speed Wind Dir Waves Ship Positions

Overseas Houston

Owner: ASC Leasing I, Inc., Philadelphia, PA. More information available from US FCC via Universal Licensing System and Coast Guard Vessel Documentation Center.

Last reported at 2014-Sep-27 01:32 UTC. Time now 2014-Oct-01 10:20 UTC.
Position N 27°36' W 083°06'.

Type: Tanker. MMSI: 367109000.

Date/timePositionNaut miles runAvg speedWind from/ knotsBaromVisibWave heightAir tempDewpointWater temp
2014-Sep-27 01:32N 27°36' W 083°06'1413.8
2014-Sep-27 00:33N 27°36' W 082°51'1313.5
2014-Sep-26 23:33N 27°39' W 082°36'9 8.8
2014-Sep-26 22:33N 27°48' W 082°34'4 3.8
2014-Sep-26 21:33N 27°52' W 082°33'0 0.0
2014-Sep-26 20:33N 27°52' W 082°33'0 0.0
2014-Sep-26 19:33N 27°52' W 082°33'0 0.0
2014-Sep-26 18:33N 27°52' W 082°33'0 0.0
2014-Sep-26 17:33N 27°52' W 082°33'0 0.0
2014-Sep-26 16:33N 27°52' W 082°33'0 0.0
2014-Sep-26 15:33N 27°52' W 082°33'0 0.0
2014-Sep-26 14:33N 27°52' W 082°33'0 0.0
2014-Sep-26 13:33N 27°52' W 082°33'0 0.0
2014-Sep-26 12:33N 27°52' W 082°33'0 0.0
2014-Sep-26 11:33N 27°52' W 082°33'0 0.0
2014-Sep-26 10:33N 27°52' W 082°33'0 0.0
2014-Sep-26 09:33N 27°52' W 082°33'0 0.0
2014-Sep-26 08:33N 27°52' W 082°33'0 0.0
2014-Sep-26 07:33N 27°52' W 082°33'0 0.0
2014-Sep-26 06:33N 27°52' W 082°33'0 0.0
2014-Sep-26 05:33N 27°52' W 082°33'0 0.0
2014-Sep-26 04:33N 27°52' W 082°33'0 0.0
2014-Sep-26 03:33N 27°52' W 082°33'4 3.6
2014-Sep-26 02:33N 27°48' W 082°34'7 7.2
2014-Sep-26 01:33N 27°51' W 082°27'4 4.5
2014-Sep-26 00:33N 27°55' W 082°27'0 0.0
2014-Sep-25 23:33N 27°55' W 082°27'0 0.0
2014-Sep-25 22:33N 27°55' W 082°27'0 0.0
2014-Sep-25 21:33N 27°55' W 082°27'0 0.0
2014-Sep-25 20:33N 27°55' W 082°27'0 0.0
2014-Sep-25 19:33N 27°55' W 082°27'0 0.0
2014-Sep-25 18:33N 27°55' W 082°27'0 0.0
2014-Sep-25 17:33N 27°55' W 082°27'0 0.0
2014-Sep-25 16:33N 27°55' W 082°27'0 0.0
2014-Sep-25 15:33N 27°55' W 082°27'0 0.0
2014-Sep-25 14:33N 27°55' W 082°27'0 0.0
2014-Sep-25 13:33N 27°55' W 082°27'0 0.0
2014-Sep-25 12:33N 27°55' W 082°27'0 0.0
2014-Sep-25 11:32N 27°55' W 082°27'0 0.0
2014-Sep-25 10:33N 27°55' W 082°27'0 0.0
2014-Sep-25 09:33N 27°55' W 082°27'0 0.0
2014-Sep-25 08:33N 27°55' W 082°27'0 0.0
2014-Sep-25 07:33N 27°55' W 082°27'0 0.0
2014-Sep-25 06:33N 27°55' W 082°27'0 0.0
2014-Sep-25 05:33N 27°55' W 082°27'0 0.0
2014-Sep-25 04:33N 27°55' W 082°27'4 3.6
2014-Sep-25 03:33N 27°51' W 082°27'1010.6
2014-Sep-25 02:33N 27°43' W 082°33'1111.0
2014-Sep-25 01:33N 27°36' W 082°43'1111.1
2014-Sep-25 00:33N 27°36' W 082°56'6 5.7
2014-Sep-24 23:33N 27°37' W 083°02'0 0.0
2014-Sep-24 22:33N 27°37' W 083°02'0 0.0
2014-Sep-24 21:33N 27°37' W 083°02'0 0.0
2014-Sep-24 20:33N 27°37' W 083°02'0 0.0
2014-Sep-24 19:33N 27°37' W 083°02'0 0.0
2014-Sep-24 18:33N 27°37' W 083°02'0 0.0
2014-Sep-24 17:33N 27°37' W 083°02'0 0.0
2014-Sep-24 16:30N 27°37' W 083°02'0 0.0
2014-Sep-24 15:30N 27°37' W 083°02'0 0.0
2014-Sep-24 13:33N 27°37' W 083°02'0 0.0
2014-Sep-24 12:33N 27°37' W 083°02'0 0.0
2014-Sep-24 11:32N 27°37' W 083°02'0 0.0
2014-Sep-24 10:32N 27°37' W 083°02'0 0.0
2014-Sep-24 09:32N 27°37' W 083°02'2 1.6
2014-Sep-24 08:33N 27°37' W 083°04'412 8.9
2014-Sep-22 10:21N 29°60' W 090°25'0 0.0
2014-Sep-21 12:33N 29°60' W 090°25'0 0.0
2014-Sep-21 11:27N 29°60' W 090°25'0 0.5
2014-Sep-21 10:33N 29°59' W 090°24'8 7.8
2014-Sep-21 09:31N 29°58' W 090°15'7 7.4
2014-Sep-21 08:33N 29°55' W 090°08'396 9.4
2014-Sep-19 14:33N 27°36' W 083°05'1413.9
2014-Sep-19 13:33N 27°36' W 082°50'1211.8
2014-Sep-19 12:33N 27°39' W 082°36'8 8.5
2014-Sep-19 11:33N 27°47' W 082°34'4 4.2
2014-Sep-19 10:31N 27°52' W 082°33'0 0.0
2014-Sep-19 09:31N 27°52' W 082°33'0 0.0
2014-Sep-19 08:31N 27°52' W 082°33'0 0.0
2014-Sep-19 07:31N 27°52' W 082°33'0 0.0
2014-Sep-19 06:31N 27°52' W 082°33'0 0.0
2014-Sep-19 05:31N 27°52' W 082°33'0 0.0
2014-Sep-19 04:31N 27°52' W 082°33'0 0.0
2014-Sep-19 03:31N 27°52' W 082°33'0 0.0
2014-Sep-19 02:31N 27°52' W 082°33'0 0.0
2014-Sep-19 01:31N 27°52' W 082°33'0 0.0
2014-Sep-19 00:31N 27°52' W 082°33'0 0.0
2014-Sep-18 23:31N 27°52' W 082°33'0 0.0
2014-Sep-18 22:31N 27°52' W 082°33'0 0.0
2014-Sep-18 21:34N 27°52' W 082°33'0 0.0
2014-Sep-18 20:33N 27°52' W 082°33'0 0.0
2014-Sep-18 19:33N 27°52' W 082°33'0 0.0
2014-Sep-18 18:33N 27°52' W 082°33'0 0.0
2014-Sep-18 17:33N 27°52' W 082°33'0 0.0
2014-Sep-18 16:33N 27°52' W 082°33'0 0.0
2014-Sep-18 15:33N 27°52' W 082°33'0 0.0
2014-Sep-18 14:30N 27°52' W 082°33'0 0.0
2014-Sep-18 13:33N 27°52' W 082°33'0 0.0
2014-Sep-18 12:33N 27°52' W 082°33'0 0.0
2014-Sep-18 11:33N 27°52' W 082°33'0 0.0
2014-Sep-18 10:33N 27°52' W 082°33'0 0.0
2014-Sep-18 09:33N 27°52' W 082°33'0 0.0
2014-Sep-18 08:33N 27°52' W 082°33'0 0.0
2014-Sep-18 07:33N 27°52' W 082°33'0 0.0
2014-Sep-18 06:27N 27°52' W 082°33'0 0.0
2014-Sep-18 05:33N 27°52' W 082°33'0 0.4
2014-Sep-18 04:33N 27°51' W 082°33'6 5.6
2014-Sep-18 03:33N 27°48' W 082°28'7 7.0
2014-Sep-18 02:33N 27°55' W 082°27'0 0.1
2014-Sep-18 01:33N 27°55' W 082°27'0 0.0
2014-Sep-18 00:33N 27°55' W 082°27'0 0.0
2014-Sep-17 23:33N 27°55' W 082°27'0 0.0
2014-Sep-17 22:33N 27°55' W 082°27'0 0.0
2014-Sep-17 21:30N 27°55' W 082°27'0 0.0
2014-Sep-17 20:33N 27°55' W 082°27'0 0.0
2014-Sep-17 19:32N 27°55' W 082°27'0 0.0
2014-Sep-17 18:32N 27°55' W 082°27'0 0.0
2014-Sep-17 17:32N 27°55' W 082°27'0 0.0
2014-Sep-17 16:32N 27°55' W 082°27'0 0.0
2014-Sep-17 15:29N 27°55' W 082°27'0 0.0
2014-Sep-17 14:32N 27°55' W 082°27'0 0.0
2014-Sep-17 13:32N 27°55' W 082°27'0 0.0
2014-Sep-17 12:32N 27°55' W 082°27'0 0.0
2014-Sep-17 11:32N 27°55' W 082°27'1 1.0
2014-Sep-17 10:33N 27°54' W 082°26'1010.2
2014-Sep-17 09:33N 27°45' W 082°32'1211.9
2014-Sep-17 08:33N 27°37' W 082°41'1211.9
2014-Sep-17 07:33N 27°36' W 082°55'6 6.3
2014-Sep-17 06:32N 27°37' W 083°02'0 0.0
2014-Sep-17 05:32N 27°37' W 083°02'0 0.0
2014-Sep-17 04:32N 27°37' W 083°02'0 0.0
2014-Sep-17 03:32N 27°37' W 083°02'0 0.0
2014-Sep-17 02:32N 27°37' W 083°02'  

Dump ship's entire track history